CW6467 Weather Reports


time (UTC)temp
C
wind
direction
speed
KPH
gust
KPH
rain 1hr
cm
rain 24hr
cm
rain mn
cm
humidity
%
barometer
mb
20211209095805 -2 80 3.2 6.4 0.00 0.00 0.00 77 979.8
20211209092805 -2 155 1.6 6.4 0.00 0.00 0.00 77 981.2
20211209085805 -3 148 1.6 4.8 0.00 0.00 0.00 77 980.6
20211209082805 -3 152 1.6 6.4 0.00 0.00 0.00 77 981.0
20211209075805 -3 152 1.6 4.8 0.00 0.00 0.00 81 981.3
20211209072805 -5 67 0.0 4.8 0.00 0.00 0.00 83 981.8
20211209065805 -5 43 3.2 4.8 0.00 0.00 0.00 84 982.7
20211209062805 -6 43 0.0 1.6 0.00 0.00 0.00 84 983.4
20211209055805 -6 43 1.6 3.2 0.00 0.00 0.00 84 983.8
20211209052805 -6 43 0.0 3.2 0.00 0.00 0.00 83 984.3
20211209045805 -6 43 0.0 1.6 0.00 0.00 0.00 82 984.6
20211209042805 -6 43 1.6 4.8 0.00 0.00 0.00 81 984.5
20211209035805 -6 43 1.6 4.8 0.00 0.00 0.00 81 984.5
20211209032805 -5 63 1.6 3.2 0.00 0.00 0.00 80 984.5
20211209025805 -5 63 0.0 3.2 0.00 0.00 0.00 77 984.8
20211209022805 -4 63 0.0 0.0 0.00 0.00 0.00 75 984.8
20211209015805 -3 63 0.0 1.6 0.00 0.00 0.00 72 984.8
20211209012805 -3 63 0.0 4.8 0.00 0.00 0.00 71 984.5
20211209005805 -2 59 0.0 6.4 0.00 0.00 0.00 70 983.6
20211208235805 -3 51 1.6 4.8 0.00 0.00 0.00 68 984.1
20211208232805 -3 40 1.6 3.2 0.00 0.00 0.00 66 984.0
20211208225805 -2 26 0.0 1.6 0.00 0.00 0.00 63 984.3
20211208222805 -1 263 1.6 4.8 0.00 0.00 0.00 59 984.5
20211208215805 0 183 1.6 4.8 0.00 0.00 0.00 56 984.4
20211208212805 0 296 1.6 9.7 0.00 0.00 0.00 54 984.2
20211208205805 0 234 1.6 8.0 0.00 0.00 0.00 54 983.7
20211208202805 0 233 3.2 9.7 0.00 0.00 0.00 54 983.5
20211208195805 1 186 4.8 8.0 0.00 0.00 0.00 52 982.9
20211208192805 0 119 3.2 8.0 0.00 0.00 0.00 54 982.8
20211208185805 0 171 1.6 9.7 0.00 0.00 0.00 54 983.1
20211208182805 0 97 1.6 8.0 0.00 0.00 0.00 55 983.1
20211208175805 0 96 1.6 11.3 0.00 0.00 0.00 58 982.8
20211208172805 0 34 6.4 11.3 0.00 0.00 0.00 59 982.6
20211208165805 -1 282 8.0 11.3 0.00 0.00 0.00 62 982.5
20211208162805 -2 15 4.8 11.3 0.00 0.00 0.00 66 982.6
20211208155805 -3 9 4.8 11.3 0.00 0.00 0.00 72 982.0
20211208152805 -3 265 0.0 9.7 0.00 0.00 0.00 75 981.5
20211208145805 -4 210 4.8 6.4 0.00 0.00 0.00 80 981.1
20211208142805 -5 219 1.6 6.4 0.00 0.00 0.00 83 980.5
20211208135805 -5 209 1.6 4.8 0.00 0.00 0.00 84 980.5
20211208132805 -6 194 0.0 1.6 0.00 0.00 0.00 84 980.2
20211208125805 -6 194 0.0 1.6 0.00 0.00 0.00 82 979.9
20211208122805 -5 194 3.2 3.2 0.00 0.00 0.00 81 979.8
20211208115805 -5 198 0.0 6.4 0.00 0.00 0.00 80 980.0
20211208112805 -4 190 4.8 8.0 0.00 0.00 0.00 78 979.8
20211208105805 -4 175 8.0 8.0 0.00 0.00 0.00 77 979.8
20211208102805 -5 179 6.4 9.7 0.00 0.00 0.00 75 979.8